Temperature
25 21 21 21 22 23 23 24 24 25 26 25 24 24 24 24 24 23 22 22 22 22 23 22 22 21 21 21 21 20 20 20 20 19 19 19 18 18 18 18 18 18 18 18
21 21 22 23 24 24 24 23 24 24 26 25 24 24 23 23 23 23 22 22 22 22 22 22 21 21 21 21 21 20 20 20 19 19 19 19 18 18 18 18 18 18 18 18
22 22 24 24 24 25 24 24 24 24 25 25 24 23 23 23 23 23 23 22 22 22 22 22 21 21 21 21 20 20 20 20 19 19 19 18 18 18 18 18 18 18 18 18
22 24 25 25 25 25 24 25 25 25 23 22 23 21 22 22 21 21 21 21 21 22 22 22 21 21 21 21 21 20 20 20 19 19 18 18 18 18 18 18 18 18 17 17
23 24 24 24 25 26 25 25 25 25 23 21 21 21 20 21 21 21 21 21 22 22 22 22 22 22 21 21 20 20 20 19 19 18 18 18 18 18 18 18 18 18 18 17
23 24 25 25 26 26 25 24 23 21 19 20 21 21 20 20 21 21 21 22 22 22 22 22 22 21 21 21 20 20 19 19 19 18 18 18 18 18 18 18 18 17 17 17
23 24 25 26 26 25 24 21 20 20 19 19 20 20 19 20 21 21 21 21 22 22 22 21 21 21 21 20 20 19 19 19 18 18 18 18 18 18 18 18 17 17 17 17
22 22 24 25 25 24 23 21 20 20 19 19 20 20 20 21 21 22 21 21 21 21 21 21 21 20 20 20 20 20 19 19 19 18 18 18 18 17 17 17 17 17 17 17
21 22 24 26 26 25 24 21 20 19 19 19 19 19 20 21 20 20 20 20 20 20 20 20 20 20 20 20 20 19 19 19 18 18 18 18 18 17 17 17 17 17 17 17
22 22 23 25 25 24 23 22 18 18 19 19 19 19 19 20 19 19 19 19 20 20 20 20 20 19 19 19 19 19 19 18 18 18 18 18 18 17 17 17 17 17 17 17
21 21 21 22 23 23 23 22 19 17 17 18 18 18 20 19 19 19 19 19 20 20 20 20 20 19 19 19 19 19 18 18 18 18 18 18 18 17 17 17 17 17 17 17
20 18 19 21 22 23 23 22 19 19 18 17 17 18 20 19 19 19 19 19 19 19 19 20 19 19 19 18 18 18 18 18 18 18 18 18 17 17 17 17 17 17 17 16
20 18 18 20 20 21 22 22 20 17 16 16 17 18 19 18 18 19 19 19 19 19 19 19 19 19 19 18 18 18 18 18 18 18 17 17 17 17 17 17 17 16 16 16
20 17 18 19 19 20 21 22 21 18 17 17 17 18 18 18 17 17 18 19 19 19 19 19 19 18 18 18 18 18 18 18 18 17 17 17 17 17 17 17 16 16 16 16
18 18 19 20 21 21 21 22 21 20 18 18 18 18 18 17 17 17 18 18 18 18 18 18 18 18 18 18 18 18 17 17 17 17 17 16 16 16 16 16 16 16 16 16
17 18 19 19 21 21 21 21 21 21 20 19 19 18 17 18 18 18 18 18 17 17 18 18 18 17 17 17 17 17 17 17 17 17 16 16 16 16 16 16 16 15 15 15
16 17 17 17 19 20 19 20 21 20 20 19 18 18 17 17 17 17 17 17 17 17 17 17 17 17 17 17 17 17 17 16 16 16 16 16 16 15 15 15 15 15 15 15
16 15 14 16 18 18 18 20 21 20 19 19 18 17 17 17 17 18 18 18 17 17 17 17 17 17 17 16 16 16 16 16 16 16 15 15 15 15 15 15 15 15 15 15
15 15 15 15 16 17 19 20 20 19 18 18 17 17 17 17 17 16 17 18 17 17 17 17 17 17 16 16 16 16 15 15 15 15 15 15 15 15 15 14 14 14 14 14
15 14 15 15 17 17 18 20 20 18 17 17 17 16 17 17 14 15 17 17 17 17 17 16 16 16 16 15 15 15 15 15 15 15 15 14 14 14 14 14 14 14 14 14
16 15 15 15 16 16 18 19 20 18 16 17 18 17 17 16 16 16 17 17 17 16 16 16 16 16 15 15 15 15 15 15 14 14 14 14 14 14 14 14 14 13 13 13
15 14 15 14 15 16 17 18 17 16 17 18 18 18 18 17 17 16 16 16 16 16 16 15 15 15 15 14 14 14 14 14 14 14 14 14 14 13 13 13 13 13 13 13
14 14 13 14 14 15 17 17 18 18 18 18 18 18 17 17 16 16 16 16 16 16 15 15 15 14 14 14 14 14 13 13 13 13 13 13 13 13 13 13 13 13 13 13
15 14 14 14 15 16 17 18 18 18 18 18 18 17 17 17 16 16 16 15 15 15 15 15 14 14 14 13 13 13 13 13 13 13 13 13 13 13 13 12 12 12 12 12
15 14 14 14 15 16 16 17 17 17 17 17 17 17 17 16 16 16 15 15 15 15 15 14 14 14 13 13 13 13 13 13 12 12 12 12 12 12 12 12 12 12 12 12
14 14 13 14 15 14 16 17 17 17 17 17 16 16 16 16 16 15 15 15 15 14 14 14 14 13 13 13 13 13 12 12 12 12 12 12 12 12 12 12 12 12 12 12
Wind_Speed
2 2 5 9 9 8 5 4 8 10 7 2 4 3 6 7 8 9 10 10 9 9 7 8 9 10 10 9 8 7 7 5 5 3 3 2 1 1 1 1 1 2 2 2
3 7 13 9 7 6 7 7 8 8 5 2 3 3 4 6 9 11 11 10 10 7 6 8 9 9 9 9 8 8 7 6 5 4 3 3 2 2 2 1 1 1 2 2
8 9 7 7 8 8 8 7 7 6 4 3 3 2 1 1 4 6 9 9 9 11 11 10 9 8 9 10 10 9 7 7 6 4 3 2 2 1 0 0 1 1 2 2
7 9 6 7 8 8 8 9 7 4 1 3 1 2 5 2 1 4 6 7 8 9 9 9 9 9 10 10 10 9 8 7 6 5 5 4 3 3 3 2 2 2 2 2
7 5 4 7 9 7 8 6 3 2 2 1 3 3 5 0 1 4 6 9 10 10 10 10 10 10 10 8 9 8 7 6 6 6 6 5 4 3 2 2 2 2 2 2
9 7 5 6 6 4 2 4 6 6 5 1 3 2 4 4 7 6 5 8 9 9 9 8 8 7 7 6 7 7 7 6 6 6 5 6 5 4 3 2 2 2 2 2
7 7 4 3 2 4 4 6 4 5 4 4 3 2 6 6 6 7 8 7 7 6 6 6 7 7 6 7 7 7 7 6 6 6 5 5 5 5 5 4 4 3 2 2
2 6 4 2 4 4 2 8 7 5 4 4 3 2 5 4 2 4 6 7 6 5 5 6 6 6 5 6 7 7 7 6 5 6 6 5 4 4 4 4 4 4 3 3
3 5 5 3 2 5 3 3 8 7 2 1 2 3 5 3 4 3 6 7 6 5 5 5 5 4 5 5 5 5 6 5 5 5 4 4 4 4 3 3 3 3 2 2
5 3 6 5 3 3 5 5 6 5 4 1 2 2 3 2 1 3 6 6 5 5 5 5 4 3 4 4 4 4 4 4 4 4 4 4 3 3 3 3 3 3 3 2
4 3 5 5 2 1 3 3 4 4 5 5 2 5 4 7 6 6 5 6 6 6 6 6 5 3 4 3 2 3 3 4 4 3 3 3 3 2 2 2 2 3 2 3
3 4 2 4 4 2 4 3 5 4 2 4 4 4 4 5 4 5 5 5 5 5 5 6 6 5 4 4 3 3 3 4 4 4 3 3 2 2 2 2 2 2 2 3
4 5 2 7 7 6 3 2 3 5 4 4 4 4 1 3 4 4 5 5 5 5 5 5 5 5 4 5 4 3 2 3 3 3 3 3 2 2 3 3 2 1 2 2
5 5 5 6 5 3 3 4 2 4 3 3 5 6 3 3 4 3 3 5 5 5 5 5 4 3 3 3 3 3 2 1 2 3 3 3 3 4 4 3 2 2 2 2
5 4 1 2 3 1 3 5 3 2 6 7 7 7 8 8 7 6 5 5 6 5 5 4 4 2 2 2 2 2 2 1 2 3 3 2 2 2 3 3 2 2 2 3
4 3 2 3 3 3 4 6 3 3 3 5 7 4 5 5 6 7 6 6 6 5 5 4 3 3 2 1 1 2 2 2 3 3 2 2 1 1 2 2 2 2 2 2
3 4 3 2 4 4 4 4 2 1 2 6 6 6 6 6 7 7 7 6 6 5 4 4 3 2 2 1 2 2 2 2 2 2 2 2 2 2 1 1 2 2 2 2
5 4 3 0 3 1 6 3 2 4 3 3 5 7 9 9 7 5 6 8 6 5 4 3 2 1 1 1 2 2 2 2 2 2 2 2 2 2 2 1 2 1 1 2
6 6 3 3 1 3 4 3 1 4 2 2 6 7 7 7 6 3 3 6 6 5 4 3 2 2 1 1 2 2 2 2 2 2 2 2 3 2 2 2 2 2 2 2
5 6 5 3 2 4 5 4 0 6 1 2 5 7 6 6 3 3 3 5 5 4 4 3 2 2 2 1 2 3 2 2 1 2 2 2 3 3 3 3 2 1 1 2
2 2 3 3 3 5 5 4 3 3 6 3 4 6 6 4 5 5 4 4 4 4 4 3 3 2 1 1 2 2 1 1 2 2 1 1 2 2 3 2 1 1 1 1
3 2 3 3 3 5 5 3 2 5 3 4 4 4 5 5 5 5 4 4 4 4 3 3 3 1 0 1 2 1 1 2 1 1 1 2 2 2 1 2 2 1 2 2
2 5 4 5 6 5 2 2 2 3 3 3 4 4 5 6 5 4 4 4 4 4 3 3 3 2 1 1 2 1 3 2 1 1 2 2 2 2 2 2 2 1 2 2
3 0 3 1 2 2 0 2 3 2 2 3 4 5 6 5 5 4 4 4 4 4 3 2 2 2 2 2 1 2 2 1 2 2 2 2 2 1 1 1 1 2 2 3
3 0 1 1 2 1 2 0 0 1 2 4 4 5 6 6 5 4 4 4 4 4 3 3 3 3 3 3 2 2 2 2 2 2 2 2 2 2 1 1 1 2 3 4
3 3 3 5 5 4 4 3 1 1 2 3 4 3 3 5 6 4 4 4 4 4 3 3 3 3 3 2 2 2 2 2 2 1 2 2 1 1 1 1 1 3 1 2
Wind_Direction
254 117 231 232 210 209 234 266 276 272 274 204 193 169 174 154 138 148 156 160 165 171 172 157 155 155 149 140 138 140 141 145 137 130 133 135 155 168 162 177 152 144 136 146
2 246 235 234 238 231 248 261 271 288 302 143 155 168 184 160 161 165 167 167 164 154 151 156 154 155 156 152 151 152 156 158 161 166 172 173 173 189 199 218 167 157 152 162
212 241 238 230 243 249 259 237 244 259 334 32 109 12 305 205 154 157 154 159 160 165 163 159 159 160 162 162 165 167 169 168 170 164 145 128 89 62 37 313 254 231 171 165
242 252 248 238 241 223 251 243 223 226 60 296 102 207 270 238 125 160 159 160 169 166 164 165 168 168 175 178 171 166 168 169 172 162 161 158 164 187 210 212 222 241 205 192
256 257 235 238 243 225 233 242 221 211 147 20 8 136 275 307 203 227 196 176 176 172 173 176 175 175 177 177 172 169 167 171 176 174 177 174 184 200 200 195 196 225 244 222
253 264 228 229 253 227 173 51 33 47 72 33 263 157 264 237 208 204 189 178 181 179 180 178 169 154 158 163 165 164 166 177 180 178 179 179 181 181 168 183 197 219 239 246
299 293 273 242 296 331 73 79 31 2 17 258 267 161 247 260 200 173 166 167 169 169 166 162 159 157 161 162 166 173 173 179 184 180 182 185 184 179 184 192 197 203 222 236
267 297 287 272 191 197 178 137 155 188 210 268 322 226 270 280 190 148 139 134 127 129 142 148 155 154 159 167 172 177 178 179 182 184 190 188 181 183 197 196 194 203 216 227
188 269 296 294 232 150 146 166 166 141 151 116 294 301 321 16 52 89 112 114 128 135 135 129 127 141 149 152 163 174 181 177 184 190 191 189 186 185 194 197 193 203 216 214
166 262 300 308 13 17 148 146 92 111 143 218 278 259 242 225 143 113 113 120 135 129 118 115 126 143 147 150 147 151 161 178 185 186 188 183 185 197 198 189 194 197 203 188
136 167 308 4 32 269 43 70 100 119 145 153 204 267 240 197 179 154 146 141 134 134 142 143 138 141 132 118 125 153 176 174 170 178 185 174 180 181 171 185 215 208 190 170
130 126 272 277 279 191 130 139 130 139 210 159 160 255 284 174 162 142 143 139 126 125 142 148 138 130 129 142 155 160 181 177 181 180 175 185 179 171 183 205 228 213 187 174
110 104 30 337 343 6 42 29 107 127 123 147 159 238 303 110 101 118 131 130 121 115 115 121 123 126 136 146 153 156 166 180 177 163 162 165 168 180 199 210 218 201 181 162
113 108 157 198 230 265 312 320 16 107 140 182 195 191 209 153 143 128 123 125 119 109 110 108 110 116 127 141 154 155 161 174 162 155 155 168 191 202 209 208 193 168 167 176
88 110 143 229 264 281 295 299 284 197 182 182 201 186 199 187 172 157 140 125 118 116 111 117 122 123 116 110 127 127 125 132 143 141 149 181 200 201 201 201 189 162 166 188
76 104 63 347 338 349 322 317 294 241 179 161 152 197 213 175 148 139 141 134 129 127 126 125 116 114 122 128 149 130 125 137 129 132 163 177 161 162 179 186 164 148 162 185
86 107 90 304 322 12 318 285 248 204 173 160 181 197 160 141 146 156 152 144 141 136 133 134 137 140 150 150 145 145 139 122 120 129 142 142 142 144 170 172 142 154 184 190
128 111 119 71 31 240 251 286 97 101 62 108 129 141 148 151 156 152 144 141 144 144 139 139 125 136 139 112 83 107 114 117 131 146 146 141 139 146 150 135 139 160 168 167
140 131 118 119 168 276 298 321 70 124 36 29 112 122 126 119 88 62 128 135 148 151 149 149 147 143 122 111 111 104 107 128 135 156 173 182 163 156 148 153 173 183 179 199
84 103 121 131 155 228 257 290 145 99 48 311 122 130 136 118 123 220 181 131 132 132 131 128 116 97 89 91 122 112 118 120 162 200 197 183 165 158 164 173 190 202 187 208
47 66 146 181 206 254 274 304 44 136 217 222 152 146 140 151 185 187 164 144 147 142 139 131 121 117 133 103 102 111 128 190 216 205 182 178 168 162 174 176 181 175 181 182
167 162 188 161 186 246 307 23 123 207 188 154 148 151 140 143 140 145 154 156 151 141 135 132 129 134 183 119 112 115 248 242 206 155 160 191 192 192 190 177 202 204 184 198
156 186 188 184 206 235 269 166 212 163 148 157 153 154 139 133 142 154 166 162 155 149 154 156 155 163 240 236 150 184 257 236 173 162 193 207 205 201 204 198 208 216 210 213
303 166 127 132 241 240 104 67 41 75 144 157 152 148 142 143 153 167 177 170 159 161 166 167 160 178 241 256 225 218 242 207 157 177 214 218 198 219 226 217 209 203 214 219
250 319 107 229 251 8 349 266 202 44 103 109 119 132 140 146 161 171 177 178 172 169 176 173 178 198 232 248 250 247 221 165 158 187 212 225 208 202 207 248 245 234 230 215
236 188 190 225 223 188 235 243 235 140 156 143 133 126 139 157 167 161 162 173 172 175 181 184 192 202 229 231 241 243 214 172 163 195 225 232 220 204 198 192 320 347 329 271
Height
1494 1501 1506 1502 1500 1502 1502 1505 1507 1498 1487 1492 1495 1497 1495 1495 1498 1500 1502 1502 1504 1505 1508 1510 1513 1514 1516 1518 1520 1521 1522 1523 1524 1525 1525 1525 1525 1526 1526 1526 1526 1526 1526 1526
1501 1503 1493 1491 1493 1496 1499 1505 1503 1495 1486 1491 1496 1497 1495 1494 1495 1497 1499 1501 1503 1505 1507 1509 1511 1514 1515 1516 1518 1520 1521 1522 1523 1523 1524 1524 1524 1524 1525 1525 1525 1525 1525 1525
1501 1493 1486 1490 1492 1495 1497 1500 1499 1498 1491 1490 1496 1504 1500 1496 1495 1496 1496 1499 1501 1503 1505 1507 1510 1512 1513 1515 1517 1518 1519 1521 1521 1522 1523 1523 1524 1523 1523 1523 1523 1523 1523 1523
1494 1486 1486 1489 1490 1491 1499 1487 1488 1491 1500 1509 1502 1521 1507 1499 1497 1497 1497 1499 1501 1503 1505 1506 1508 1510 1511 1513 1515 1516 1518 1519 1520 1520 1521 1521 1521 1521 1521 1521 1522 1522 1522 1522
1491 1483 1485 1488 1484 1483 1486 1480 1484 1488 1498 1509 1508 1518 1514 1502 1503 1499 1497 1497 1499 1501 1503 1505 1506 1507 1510 1513 1514 1515 1516 1517 1518 1519 1519 1519 1519 1520 1520 1520 1520 1520 1520 1520
1484 1478 1479 1479 1475 1476 1478 1483 1489 1497 1508 1524 1514 1518 1518 1506 1500 1496 1495 1496 1496 1499 1501 1503 1505 1507 1509 1511 1513 1514 1515 1516 1517 1517 1518 1518 1518 1519 1519 1519 1519 1519 1519 1519
1488 1480 1475 1474 1478 1477 1481 1501 1521 1524 1532 1529 1512 1515 1515 1497 1492 1491 1492 1494 1495 1498 1500 1502 1505 1507 1508 1510 1511 1513 1513 1514 1515 1516 1516 1517 1517 1517 1518 1518 1518 1518 1517 1517
1500 1497 1478 1473 1476 1482 1484 1497 1522 1533 1535 1529 1514 1518 1507 1492 1490 1490 1490 1492 1495 1498 1500 1502 1504 1505 1507 1509 1510 1511 1512 1512 1513 1514 1514 1515 1516 1516 1516 1517 1517 1516 1516 1516
1497 1495 1475 1471 1470 1474 1485 1494 1496 1515 1521 1529 1524 1515 1503 1493 1492 1492 1492 1494 1497 1498 1500 1501 1503 1505 1506 1507 1508 1509 1511 1511 1511 1512 1512 1513 1514 1514 1515 1515 1515 1515 1515 1515
1485 1493 1481 1473 1471 1473 1477 1484 1502 1515 1529 1534 1526 1520 1515 1503 1499 1495 1495 1496 1498 1499 1501 1501 1504 1505 1505 1506 1507 1507 1508 1509 1509 1510 1511 1511 1512 1512 1513 1514 1514 1514 1514 1514
1481 1494 1489 1482 1483 1484 1483 1489 1499 1512 1517 1530 1535 1526 1498 1498 1496 1496 1496 1497 1497 1499 1500 1501 1502 1503 1504 1504 1505 1506 1507 1508 1508 1508 1509 1509 1510 1511 1511 1511 1512 1512 1513 1513
1480 1493 1499 1489 1479 1474 1479 1486 1497 1512 1517 1519 1527 1523 1493 1493 1494 1495 1496 1497 1497 1499 1500 1501 1501 1502 1503 1504 1505 1506 1506 1506 1506 1506 1507 1507 1508 1509 1509 1510 1510 1511 1511 1511
1479 1494 1507 1503 1495 1484 1484 1484 1489 1500 1511 1519 1525 1518 1494 1493 1494 1495 1495 1497 1498 1499 1499 1500 1500 1501 1503 1503 1504 1504 1504 1505 1505 1506 1506 1506 1507 1507 1508 1508 1509 1509 1510 1510
1475 1493 1504 1509 1503 1492 1490 1486 1486 1497 1512 1515 1511 1507 1499 1496 1495 1496 1496 1496 1498 1498 1498 1499 1499 1501 1502 1502 1503 1503 1504 1504 1504 1504 1504 1505 1505 1506 1507 1507 1507 1508 1508 1508
1477 1492 1491 1491 1486 1485 1486 1485 1484 1490 1495 1503 1501 1500 1497 1494 1493 1494 1496 1497 1497 1498 1498 1499 1499 1500 1500 1501 1502 1502 1503 1503 1503 1503 1503 1503 1504 1505 1505 1505 1506 1506 1507 1507
1481 1490 1491 1492 1485 1485 1486 1484 1482 1483 1485 1490 1493 1497 1490 1490 1492 1494 1496 1497 1497 1497 1498 1498 1499 1499 1499 1500 1500 1501 1501 1501 1502 1502 1502 1503 1503 1503 1503 1503 1504 1504 1505 1505
1486 1492 1499 1502 1491 1488 1496 1486 1482 1483 1481 1485 1492 1491 1489 1491 1492 1493 1494 1495 1496 1497 1497 1498 1498 1498 1499 1499 1498 1499 1500 1500 1500 1500 1501 1501 1501 1501 1501 1501 1501 1501 1502 1502
1486 1494 1502 1504 1500 1508 1496 1479 1477 1481 1482 1481 1482 1484 1486 1488 1491 1492 1493 1494 1496 1497 1497 1497 1497 1498 1498 1498 1498 1498 1498 1498 1498 1499 1499 1499 1499 1499 1499 1499 1499 1499 1499 1500
1480 1490 1501 1509 1508 1502 1489 1481 1480 1483 1488 1484 1484 1486 1488 1489 1491 1494 1494 1494 1495 1496 1496 1496 1497 1497 1497 1497 1496 1496 1496 1496 1496 1497 1497 1497 1497 1497 1497 1497 1497 1497 1497 1497
1481 1487 1499 1505 1507 1508 1493 1479 1477 1482 1493 1486 1484 1486 1488 1489 1496 1496 1494 1494 1495 1495 1495 1496 1496 1496 1495 1495 1495 1494 1494 1494 1494 1494 1495 1495 1495 1495 1495 1495 1495 1495 1495 1495
1492 1494 1499 1504 1505 1498 1485 1478 1477 1493 1494 1485 1484 1484 1486 1487 1490 1492 1492 1493 1494 1494 1494 1495 1495 1494 1494 1494 1493 1493 1492 1492 1492 1493 1493 1493 1493 1493 1493 1493 1493 1492 1492 1492
1495 1498 1500 1502 1506 1501 1482 1480 1484 1486 1482 1482 1483 1484 1485 1486 1487 1489 1491 1491 1492 1492 1493 1493 1493 1493 1492 1492 1492 1491 1490 1490 1490 1490 1490 1490 1491 1491 1491 1491 1490 1490 1490 1490
1490 1492 1493 1494 1495 1485 1482 1481 1481 1480 1481 1481 1482 1483 1484 1485 1486 1488 1489 1490 1490 1491 1491 1491 1491 1491 1491 1490 1490 1489 1489 1489 1488 1488 1488 1488 1488 1488 1488 1488 1488 1487 1487 1487
1487 1485 1487 1488 1485 1482 1481 1480 1480 1480 1480 1481 1480 1482 1483 1484 1484 1486 1487 1487 1488 1489 1489 1489 1489 1489 1489 1488 1488 1487 1487 1487 1487 1486 1486 1486 1486 1486 1486 1485 1485 1485 1484 1484
1485 1484 1486 1486 1483 1481 1480 1480 1480 1480 1479 1479 1480 1481 1482 1483 1483 1483 1484 1485 1486 1487 1488 1488 1487 1487 1486 1486 1486 1485 1485 1485 1484 1484 1484 1484 1483 1483 1483 1482 1482 1482 1481 1481
1482 1484 1486 1485 1480 1480 1480 1479 1478 1478 1478 1479 1479 1480 1481 1481 1481 1482 1482 1483 1484 1485 1486 1486 1486 1485 1484 1484 1483 1483 1483 1482 1482 1481 1481 1481 1481 1480 1480 1479 1479 1479 1479 1478